Tests — V7NV7 — position and weather

sailwx.info

Track history (hours):
 
Tides and Currents Weather Stations Pressure Air Temp Water Temp Dewpoint Dewpoint Depression Visibility Wind Speed Wind Dir Waves Ship Positions

Tests

Last reported at 2014-Sep-23 10:33 UTC. Time now 2014-Sep-23 20:24 UTC.
Position N 53°31' E 008°09'.

Length 37 m; draft 5.7 m.

Type: Cargo ship. MMSI: 438003028.

Date/timePositionNaut miles runAvg speedWind from/ knotsBaromVisibWave heightAir tempDewpointWater temp
2014-Sep-23 10:33N 53°31' E 008°09'0 0.0
2014-Sep-23 09:33N 53°31' E 008°09'0 0.0
2014-Sep-23 08:33N 53°31' E 008°09'0 0.0
2014-Sep-23 07:33N 53°31' E 008°09'0 0.0
2014-Sep-23 06:33N 53°31' E 008°09'0 0.0
2014-Sep-23 05:30N 53°31' E 008°09'0 0.0
2014-Sep-23 04:27N 53°31' E 008°09'0 0.0
2014-Sep-23 03:18N 53°31' E 008°09'0 0.0
2014-Sep-23 02:27N 53°31' E 008°09'0 0.0
2014-Sep-23 01:33N 53°31' E 008°09'0 0.0
2014-Sep-23 00:30N 53°31' E 008°09'0 0.0
2014-Sep-22 23:33N 53°31' E 008°09'0 0.0
2014-Sep-22 22:33N 53°31' E 008°09'0 0.0
2014-Sep-22 21:30N 53°31' E 008°09'0 0.0
2014-Sep-22 20:33N 53°31' E 008°09'0 0.0
2014-Sep-22 19:33N 53°31' E 008°09'0 0.0
2014-Sep-22 18:33N 53°31' E 008°09'0 0.0
2014-Sep-22 17:33N 53°31' E 008°09'0 0.0
2014-Sep-22 16:33N 53°31' E 008°09'0 0.0
2014-Sep-22 15:33N 53°31' E 008°09'0 0.0
2014-Sep-22 14:33N 53°31' E 008°09'0 0.0
2014-Sep-22 13:33N 53°31' E 008°09'0 0.0
2014-Sep-22 12:33N 53°31' E 008°09'0 0.0
2014-Sep-22 11:30N 53°31' E 008°09'0 0.0
2014-Sep-22 10:33N 53°31' E 008°09'0 0.0
2014-Sep-22 09:33N 53°31' E 008°09'0 0.0
2014-Sep-22 08:30N 53°31' E 008°09'0 0.0
2014-Sep-22 07:33N 53°31' E 008°09'0 0.0
2014-Sep-22 06:33N 53°31' E 008°09'0 0.0
2014-Sep-22 05:33N 53°31' E 008°09'0 0.0
2014-Sep-22 04:33N 53°31' E 008°09'0 0.0
2014-Sep-22 03:33N 53°31' E 008°09'0 0.0
2014-Sep-22 02:33N 53°31' E 008°09'0 0.0
2014-Sep-22 01:33N 53°31' E 008°09'0 0.0
2014-Sep-22 00:30N 53°31' E 008°09'0 0.0
2014-Sep-21 23:33N 53°31' E 008°09'0 0.0
2014-Sep-21 22:30N 53°31' E 008°09'0 0.0
2014-Sep-21 21:30N 53°31' E 008°09'0 0.0
2014-Sep-21 20:33N 53°31' E 008°09'0 0.0
2014-Sep-21 19:33N 53°31' E 008°09'0 0.0
2014-Sep-21 18:33N 53°31' E 008°09'0 0.0
2014-Sep-21 17:33N 53°31' E 008°09'0 0.0
2014-Sep-21 16:33N 53°31' E 008°09'0 0.0
2014-Sep-21 15:33N 53°31' E 008°09'0 0.0
2014-Sep-21 14:33N 53°31' E 008°09'0 0.0
2014-Sep-21 13:33N 53°31' E 008°09'0 0.0
2014-Sep-21 12:33N 53°31' E 008°09'0 0.0
2014-Sep-21 11:33N 53°31' E 008°09'0 0.0
2014-Sep-21 10:33N 53°31' E 008°09'0 0.0
2014-Sep-21 09:33N 53°31' E 008°09'0 0.0
2014-Sep-21 08:33N 53°31' E 008°09'0 0.0
2014-Sep-21 07:33N 53°31' E 008°09'0 0.0
2014-Sep-21 06:33N 53°31' E 008°09'0 0.0
2014-Sep-21 05:33N 53°31' E 008°09'0 0.5
2014-Sep-21 04:33N 53°32' E 008°10'2 1.8
2014-Sep-21 03:33N 53°33' E 008°10'10 9.8
2014-Sep-21 02:33N 53°42' E 008°04'9 8.5
2014-Sep-21 01:33N 53°49' E 007°55'16 8.0
2014-Sep-20 23:33N 54°00' E 007°35'9 8.8
2014-Sep-20 22:33N 54°08' E 007°28'10 9.5
2014-Sep-20 21:33N 54°15' E 007°17'1211.8
2014-Sep-20 20:31N 54°20' E 006°58'  
Track history (hours):
 
Tides and Currents Weather Stations Pressure Air Temp Water Temp Dewpoint Dewpoint Depression Visibility Wind Speed Wind Dir Waves Ship Positions

Tests

Last reported at 2014-Sep-23 10:33 UTC. Time now 2014-Sep-23 20:24 UTC.
Position N 53°31' E 008°09'.

Length 37 m; draft 5.7 m.

Type: Cargo ship. MMSI: 438003028.

Date/timePositionNaut miles runAvg speedWind from/ knotsBaromVisibWave heightAir tempDewpointWater temp
2014-Sep-23 10:33N 53°31' E 008°09'0 0.0
2014-Sep-23 09:33N 53°31' E 008°09'0 0.0
2014-Sep-23 08:33N 53°31' E 008°09'0 0.0
2014-Sep-23 07:33N 53°31' E 008°09'0 0.0
2014-Sep-23 06:33N 53°31' E 008°09'0 0.0
2014-Sep-23 05:30N 53°31' E 008°09'0 0.0
2014-Sep-23 04:27N 53°31' E 008°09'0 0.0
2014-Sep-23 03:18N 53°31' E 008°09'0 0.0
2014-Sep-23 02:27N 53°31' E 008°09'0 0.0
2014-Sep-23 01:33N 53°31' E 008°09'0 0.0
2014-Sep-23 00:30N 53°31' E 008°09'0 0.0
2014-Sep-22 23:33N 53°31' E 008°09'0 0.0
2014-Sep-22 22:33N 53°31' E 008°09'0 0.0
2014-Sep-22 21:30N 53°31' E 008°09'0 0.0
2014-Sep-22 20:33N 53°31' E 008°09'0 0.0
2014-Sep-22 19:33N 53°31' E 008°09'0 0.0
2014-Sep-22 18:33N 53°31' E 008°09'0 0.0
2014-Sep-22 17:33N 53°31' E 008°09'0 0.0
2014-Sep-22 16:33N 53°31' E 008°09'0 0.0
2014-Sep-22 15:33N 53°31' E 008°09'0 0.0
2014-Sep-22 14:33N 53°31' E 008°09'0 0.0
2014-Sep-22 13:33N 53°31' E 008°09'0 0.0
2014-Sep-22 12:33N 53°31' E 008°09'0 0.0
2014-Sep-22 11:30N 53°31' E 008°09'0 0.0
2014-Sep-22 10:33N 53°31' E 008°09'0 0.0
2014-Sep-22 09:33N 53°31' E 008°09'0 0.0
2014-Sep-22 08:30N 53°31' E 008°09'0 0.0
2014-Sep-22 07:33N 53°31' E 008°09'0 0.0
2014-Sep-22 06:33N 53°31' E 008°09'0 0.0
2014-Sep-22 05:33N 53°31' E 008°09'0 0.0
2014-Sep-22 04:33N 53°31' E 008°09'0 0.0
2014-Sep-22 03:33N 53°31' E 008°09'0 0.0
2014-Sep-22 02:33N 53°31' E 008°09'0 0.0
2014-Sep-22 01:33N 53°31' E 008°09'0 0.0
2014-Sep-22 00:30N 53°31' E 008°09'0 0.0
2014-Sep-21 23:33N 53°31' E 008°09'0 0.0
2014-Sep-21 22:30N 53°31' E 008°09'0 0.0
2014-Sep-21 21:30N 53°31' E 008°09'0 0.0
2014-Sep-21 20:33N 53°31' E 008°09'0 0.0
2014-Sep-21 19:33N 53°31' E 008°09'0 0.0
2014-Sep-21 18:33N 53°31' E 008°09'0 0.0
2014-Sep-21 17:33N 53°31' E 008°09'0 0.0
2014-Sep-21 16:33N 53°31' E 008°09'0 0.0
2014-Sep-21 15:33N 53°31' E 008°09'0 0.0
2014-Sep-21 14:33N 53°31' E 008°09'0 0.0
2014-Sep-21 13:33N 53°31' E 008°09'0 0.0
2014-Sep-21 12:33N 53°31' E 008°09'0 0.0
2014-Sep-21 11:33N 53°31' E 008°09'0 0.0
2014-Sep-21 10:33N 53°31' E 008°09'0 0.0
2014-Sep-21 09:33N 53°31' E 008°09'0 0.0
2014-Sep-21 08:33N 53°31' E 008°09'0 0.0
2014-Sep-21 07:33N 53°31' E 008°09'0 0.0
2014-Sep-21 06:33N 53°31' E 008°09'0 0.0
2014-Sep-21 05:33N 53°31' E 008°09'0 0.5
2014-Sep-21 04:33N 53°32' E 008°10'2 1.8
2014-Sep-21 03:33N 53°33' E 008°10'10 9.8
2014-Sep-21 02:33N 53°42' E 008°04'9 8.5
2014-Sep-21 01:33N 53°49' E 007°55'16 8.0
2014-Sep-20 23:33N 54°00' E 007°35'9 8.8
2014-Sep-20 22:33N 54°08' E 007°28'10 9.5
2014-Sep-20 21:33N 54°15' E 007°17'1211.8
2014-Sep-20 20:31N 54°20' E 006°58'  

Dump ship's entire track history